{"data":{"norad_id":53687,"epoch":"2026-05-25T03:06:52.979040Z","epoch_age_seconds":53954,"freshness":"FRESH","line1":"1 53687U 22105AR  26145.12977985 -.00000512  00000+0 -31397-4 0  9991","line2":"2 53687  97.4501  26.1370 0001994  84.7567 275.3887 15.05656601204805","mean_motion":15.05656601,"eccentricity":0.0001994,"inclination_deg":97.4501,"raan_deg":26.137,"arg_perigee_deg":84.7567,"mean_anomaly_deg":275.3887,"bstar":-3.1397e-5,"rev_number":20480,"period_min":95.639337618127,"perigee_km":548.10953719552,"apogee_km":550.87227520452,"semimajor_km":6927.6279062,"source":"CELESTRAK","updated_at":"2026-05-25T13:38:17.529863Z"}}